This is the latest recevied weather packets stored in our database for station/object KN6CW-3. If no packets are shown the sender has not sent any weather packets the latest 10 day(s).
| Time | Temp. | Humidity | Pressure | Rain* | Wind** | Luminosity | Snow |
|---|---|---|---|---|---|---|---|
| 1777828293 | 9.44° C | 43% | 1013.3 hPa | 0 mm | - | 1132 W/m² | - |
| 1777827993 | 9.44° C | 39% | 1013.3 hPa | 0 mm | - | 350 W/m² | - |
| 1777827693 | 9.44° C | 40% | 1013.2 hPa | 0 mm | - | 267 W/m² | - |
| 1777827392 | 10° C | 38% | 1013.3 hPa | 0 mm | - | 1137 W/m² | - |
| 1777827092 | 10° C | 40% | 1013.3 hPa | 0 mm | - | 1114 W/m² | - |
| 1777826792 | 10° C | 40% | 1013.3 hPa | 0 mm | - | 1041 W/m² | - |
| 1777826492 | 10° C | 40% | 1013.2 hPa | 0 mm | - | 1028 W/m² | - |
| 1777826193 | 10° C | 41% | 1013.4 hPa | 0 mm | - | 1069 W/m² | - |
| 1777825891 | 9.44° C | 39% | 1013.4 hPa | 0 mm | - | 1058 W/m² | - |
| 1777825591 | 9.44° C | 40% | 1013.5 hPa | 0 mm | - | 1062 W/m² | - |
| 1777825290 | 8.89° C | 40% | 1013.6 hPa | 0 mm | - | 1048 W/m² | - |
| 1777824990 | 9.44° C | 41% | 1013.5 hPa | 0 mm | - | 1004 W/m² | - |
| 1777824690 | 8.89° C | 40% | 1013.5 hPa | 0 mm | - | 1013 W/m² | - |
| 1777824389 | 8.89° C | 40% | 1013.4 hPa | 0 mm | - | 1037 W/m² | - |
| 1777824089 | 8.89° C | 44% | 1013.7 hPa | 0 mm | - | 1067 W/m² | - |
| 1777823789 | 8.33° C | 43% | 1013.6 hPa | 0 mm | - | 995 W/m² | - |
| 1777823489 | 8.33° C | 45% | 1013.7 hPa | 0 mm | - | 775 W/m² | - |
| 1777823188 | 7.78° C | 42% | 1013.7 hPa | 0 mm | - | 1021 W/m² | - |
| 1777822888 | 8.33° C | 43% | 1013.8 hPa | 0 mm | - | 237 W/m² | - |
| 1777822588 | 8.33° C | 43% | 1013.7 hPa | 0 mm | - | 237 W/m² | - |
| 1777822288 | 7.78° C | 46% | 1013.8 hPa | 0 mm | - | 1025 W/m² | - |
| 1777821987 | 7.22° C | 49% | 1013.8 hPa | 0 mm | - | 990 W/m² | - |
| 1777821687 | 6.67° C | 50% | 1014 hPa | 0 mm | - | 279 W/m² | - |
| 1777821387 | 6.11° C | 51% | 1013.9 hPa | 0 mm | - | 244 W/m² | - |
| 1777821086 | 6.67° C | 49% | 1013.9 hPa | 0 mm | - | 318 W/m² | - |
* Rain latest hour (hover to see other rain measurements)
** Current wind speed in m/s (hover to see current wind gust speed)